Temperature
10 10 10 11 12 13 13 13 14 15 16 15 14 14 15 16 16 16 17 17 18 18 18 19 19 19 19 20 19 19 18 18 17 16 16 15 15 14 14 14 13 13 13 13
9 9 11 13 13 13 12 12 12 14 15 14 13 13 14 15 15 16 17 17 17 17 18 18 18 19 19 19 19 19 18 18 17 17 16 16 15 14 14 14 13 13 13 13
10 11 12 12 12 12 11 11 12 12 12 13 12 12 14 16 16 16 17 17 17 17 18 18 18 18 18 18 18 18 18 18 17 16 16 15 14 14 13 13 13 13 13 13
10 11 11 11 11 11 11 12 12 11 10 11 12 10 13 16 17 17 17 17 17 17 17 17 17 18 18 18 18 18 18 17 17 16 15 15 15 15 14 14 13 13 12 12
9 11 10 10 11 11 11 11 11 11 10 9 10 9 11 15 15 17 16 18 18 17 17 17 17 17 17 17 17 17 17 17 16 16 15 15 15 15 15 13 12 12 12 12
11 11 11 11 12 12 11 10 10 10 9 7 9 10 11 15 17 17 17 18 18 17 17 17 16 16 16 16 16 17 16 16 16 15 15 15 14 15 15 14 12 12 12 11
9 10 10 11 10 10 10 8 8 8 7 7 11 11 12 16 17 17 17 17 17 16 16 16 16 16 16 16 16 16 16 16 15 15 14 13 13 14 15 15 13 12 11 11
8 8 9 9 9 9 9 9 8 9 9 11 13 12 13 16 17 18 17 17 16 16 15 15 15 15 15 15 15 15 15 15 14 14 13 12 12 13 13 13 13 12 11 11
9 9 10 10 10 10 8 8 9 8 8 7 9 12 15 16 16 16 16 16 15 15 14 14 14 14 14 14 14 14 14 14 13 13 12 11 11 11 12 12 12 11 10 10
10 9 10 10 10 9 10 9 8 7 6 7 10 12 13 15 15 15 14 14 14 14 13 13 13 13 13 13 13 13 13 13 12 12 11 11 10 11 11 11 11 10 10 9
10 9 8 8 8 8 8 8 8 8 8 7 7 10 15 14 14 14 13 14 13 13 12 12 12 12 12 12 12 12 12 12 11 10 10 10 10 10 10 10 10 10 9 8
10 9 8 8 10 10 9 9 8 7 7 8 7 9 14 14 14 14 13 13 12 11 11 11 11 11 11 11 12 12 11 10 10 10 9 9 9 9 9 9 9 8 8 7
10 8 7 8 9 9 9 9 9 8 7 7 7 9 13 13 13 13 12 11 11 10 9 9 10 10 10 11 11 10 10 9 9 8 8 8 8 8 9 8 8 7 7 7
10 9 8 8 9 9 8 9 9 8 7 6 7 9 11 12 12 12 11 10 9 8 8 8 8 9 9 9 9 9 8 8 8 7 7 7 7 8 8 7 7 7 7 6
9 8 8 9 10 10 9 9 9 8 8 7 8 9 10 11 11 11 10 9 7 7 6 7 7 7 7 7 7 7 7 7 6 6 6 6 6 6 7 6 6 6 6 5
8 7 8 8 9 10 9 10 10 9 9 9 9 9 11 11 11 10 9 8 7 6 5 6 6 6 6 6 6 6 5 5 5 4 4 5 5 6 6 6 6 6 5 5
7 7 7 8 10 10 9 10 10 10 10 10 9 10 10 10 10 9 8 7 6 5 5 5 5 5 5 5 5 4 4 3 3 3 3 4 5 5 5 5 5 5 4 4
8 7 7 7 8 8 11 12 11 10 10 10 10 10 10 10 9 8 8 7 5 5 4 4 4 4 4 4 3 3 2 2 2 2 3 4 5 5 5 5 4 4 4 3
8 7 7 7 8 9 11 11 10 10 10 10 10 10 10 10 9 8 7 6 5 4 4 4 3 3 3 3 2 2 1 1 1 2 3 4 4 5 4 4 4 3 3 2
8 7 6 7 7 8 11 11 11 9 9 10 10 9 9 9 9 7 6 5 4 4 3 3 3 2 2 1 1 1 0 1 1 2 3 4 4 4 4 3 3 2 2 1
7 6 6 7 7 8 12 11 10 9 10 10 10 9 8 8 7 6 5 4 4 3 3 2 2 1 1 0 0 0 0 1 2 2 3 3 3 3 3 3 2 2 1 1
7 7 7 7 7 8 11 11 10 10 10 10 9 8 8 7 6 5 4 3 3 2 2 1 1 1 0 0 0 0 1 1 2 3 3 3 3 3 2 2 1 1 0 0
9 9 9 8 9 11 12 12 11 11 10 9 8 8 7 6 5 4 4 3 2 2 1 1 1 0 -0 0 1 2 2 2 3 3 3 3 2 2 1 1 1 0 -0 -1
10 10 10 9 10 11 12 12 11 10 9 8 7 7 6 5 5 4 3 2 2 2 1 1 1 1 0 1 1 2 3 3 3 3 2 2 2 1 1 0 -0 -0 -1 -2
10 10 9 9 10 10 11 10 9 9 7 7 6 6 5 5 4 3 2 2 2 2 1 1 1 1 1 2 2 2 3 3 3 3 2 1 1 0 -0 -1 -1 -1 -2 -2
9 9 9 9 10 10 9 9 8 7 6 6 5 4 4 4 3 2 2 2 1 1 1 1 1 2 2 2 2 2 2 2 3 2 1 1 0 -0 -1 -1 -2 -2 -3 -3
Wind_Speed
8 6 9 11 14 11 7 6 7 5 5 4 9 13 13 13 14 15 14 14 14 14 13 12 12 11 11 11 11 12 13 14 12 10 10 9 7 6 5 4 8 10 12 14
6 9 11 9 10 11 9 8 9 8 7 7 11 17 17 19 19 19 18 16 15 15 14 13 12 11 11 10 10 10 12 14 14 11 10 7 7 6 5 4 6 10 12 13
8 3 8 10 7 7 8 8 8 8 11 9 11 13 14 15 19 19 17 17 15 15 14 13 12 12 11 11 10 10 11 12 13 13 10 9 8 6 4 5 5 7 11 12
8 4 4 7 8 8 7 5 6 7 6 5 6 7 8 9 9 12 14 14 13 13 12 11 11 11 11 11 10 10 11 12 13 15 14 16 11 8 6 6 6 8 10 11
7 7 6 7 8 8 2 4 3 5 6 7 5 7 10 9 10 9 8 9 9 9 9 9 10 10 9 9 9 10 10 11 13 15 17 16 12 8 10 10 11 9 8 9
3 3 5 6 4 4 2 0 4 4 3 6 7 9 8 4 3 1 1 1 3 4 5 6 7 7 7 7 7 7 10 11 12 15 17 16 16 16 17 15 13 10 8 8
5 6 4 3 5 4 5 3 3 4 4 8 9 8 9 7 4 3 4 4 4 4 4 5 6 6 7 7 7 7 9 10 12 14 15 14 16 17 19 17 15 14 11 9
8 7 11 8 7 6 9 5 3 4 4 3 4 8 7 8 5 3 2 4 4 6 6 7 7 6 7 8 8 8 10 9 11 13 13 13 15 13 12 13 14 13 11 10
7 4 11 10 9 6 7 7 4 4 4 5 7 7 9 9 5 3 3 4 5 7 8 8 8 7 7 8 8 9 11 10 12 12 13 15 15 13 14 13 13 12 12 12
2 4 8 7 5 6 4 4 4 3 3 5 8 7 5 2 1 2 3 5 7 8 8 9 8 7 7 7 7 9 10 11 12 13 14 13 13 14 15 14 15 15 14 13
2 3 6 7 9 11 7 5 5 4 4 4 5 6 4 7 7 6 6 7 8 9 9 9 8 7 7 6 7 9 10 12 13 14 14 15 14 14 15 14 15 16 15 14
5 2 3 7 8 10 10 9 8 4 5 5 5 9 8 6 6 8 10 10 9 8 8 8 8 6 5 4 6 8 10 13 14 15 16 15 15 15 15 16 15 15 15 13
8 4 3 5 5 7 8 12 12 8 5 5 6 10 6 8 14 13 13 12 10 8 8 7 6 4 2 2 7 10 12 14 15 16 16 16 15 15 16 17 16 15 14 13
8 4 6 2 1 4 6 10 13 12 8 9 13 19 20 19 19 17 14 11 9 8 7 6 4 1 2 5 9 13 14 15 15 16 16 16 15 16 17 16 15 14 13 12
4 3 6 9 9 7 9 12 14 17 16 14 15 21 25 22 20 15 11 8 7 6 6 5 2 2 4 8 10 13 14 14 14 15 15 15 15 16 16 16 15 14 13 12
4 3 4 7 11 12 15 16 16 17 18 20 23 26 20 17 13 12 10 6 5 3 3 2 2 4 7 10 12 13 13 13 13 14 14 15 17 17 16 15 15 14 12 10
5 4 3 4 7 8 10 12 14 13 12 13 16 15 14 16 13 10 7 4 2 1 1 2 4 6 9 10 12 12 12 13 14 14 16 16 17 17 16 16 14 13 10 9
5 4 2 4 6 6 4 4 3 4 9 10 11 13 14 13 8 5 4 1 2 3 3 4 6 8 10 11 12 12 13 14 14 15 16 16 17 17 15 14 13 10 8 7
6 4 2 3 5 8 6 3 3 2 6 4 6 10 10 10 3 3 7 6 5 5 6 6 8 10 11 12 12 13 13 13 14 15 15 15 16 16 15 13 11 9 7 7
7 5 4 3 4 4 1 4 4 1 4 1 4 8 9 8 3 2 6 7 8 8 9 9 10 12 12 12 12 14 13 14 14 14 15 14 14 14 13 12 10 7 7 6
5 5 7 7 5 7 3 3 2 2 2 4 5 6 5 3 1 3 6 8 9 10 11 11 11 11 11 11 12 13 14 14 14 15 15 14 13 12 12 10 8 7 6 4
8 6 6 6 6 8 2 2 2 3 4 5 4 3 2 1 4 6 8 9 10 11 11 11 11 11 11 11 13 14 14 14 14 15 15 13 12 10 10 9 7 6 5 3
8 8 5 7 8 5 1 3 3 3 5 4 2 3 0 3 5 7 8 9 9 10 10 11 12 13 11 11 12 15 14 14 15 15 14 12 11 9 8 8 7 4 3 3
5 5 4 5 7 7 5 4 2 1 2 3 2 2 1 4 7 8 8 9 9 10 10 10 12 13 13 13 13 13 14 13 14 14 12 10 10 8 7 6 4 4 3 3
3 3 4 7 8 7 4 2 2 3 3 3 3 2 2 6 8 8 9 9 9 9 9 9 11 13 14 14 13 12 12 13 14 13 11 9 8 7 6 5 4 5 4 3
5 6 6 5 2 2 1 3 4 3 3 3 4 5 5 6 9 10 9 9 9 10 10 11 12 14 14 13 13 11 10 12 13 11 9 7 6 5 5 4 3 4 2 2
Wind_Direction
176 192 201 202 215 251 313 305 286 286 332 307 269 271 268 263 258 252 244 242 244 245 244 239 236 230 221 210 202 191 178 175 173 173 172 170 165 153 140 136 136 137 132 126
168 222 221 223 220 237 266 279 286 300 318 311 284 276 268 255 248 244 243 239 237 241 242 240 236 233 228 219 204 195 183 177 176 177 172 162 140 122 106 98 104 117 119 122
191 188 219 226 222 225 244 256 273 293 323 293 278 280 256 248 234 233 236 239 239 239 238 238 236 234 230 225 212 203 193 182 174 165 150 130 107 97 101 105 102 105 115 119
219 211 199 208 215 216 245 248 265 286 295 293 319 297 275 277 260 228 223 226 231 236 238 239 239 238 231 224 215 206 197 186 173 163 160 158 162 159 156 138 123 115 117 121
204 198 199 212 215 208 228 41 317 289 295 297 258 257 275 241 251 241 221 215 217 223 229 236 237 237 237 227 213 207 199 188 175 169 165 165 161 141 134 132 129 125 123 124
201 170 204 221 219 218 140 112 261 257 297 270 225 222 276 254 261 277 274 274 241 244 249 247 243 239 241 237 219 207 196 187 175 168 165 167 159 149 147 148 144 138 133 128
197 194 188 201 174 183 175 192 210 199 225 250 232 226 252 268 307 327 329 329 336 330 314 293 276 260 244 235 222 205 191 182 169 163 164 164 155 153 156 154 151 147 144 142
184 199 190 193 196 175 190 207 226 244 261 297 249 239 253 249 235 216 278 294 311 314 307 296 285 274 261 238 215 199 188 177 164 159 159 152 145 149 153 152 150 148 147 143
189 191 159 181 205 180 178 218 290 334 307 283 262 270 281 240 225 209 260 285 298 300 295 287 284 278 269 250 218 197 184 171 160 154 146 142 143 145 146 144 140 138 139 140
192 162 158 152 177 229 225 189 179 189 248 272 272 257 249 334 35 35 335 311 307 301 298 298 291 282 272 250 220 195 177 163 152 144 141 141 138 139 141 141 140 139 139 136
222 154 149 161 199 194 195 209 205 215 248 258 283 266 334 4 16 8 338 321 307 304 298 295 294 291 280 249 210 179 165 148 139 133 130 131 132 136 137 137 136 136 134 134
189 181 197 210 209 203 198 203 199 209 235 231 265 270 290 313 345 341 329 321 315 309 301 295 293 290 281 231 179 155 145 135 130 128 128 129 132 135 135 133 133 133 132 131
169 181 190 197 197 200 215 218 219 232 267 244 247 263 287 322 323 322 318 316 314 312 306 301 302 308 318 142 131 126 125 124 123 125 128 131 135 136 133 132 131 129 126 122
169 210 233 232 143 182 211 222 222 224 234 249 244 267 286 297 303 309 310 310 310 309 310 302 296 353 42 94 108 112 114 118 122 126 132 136 136 134 130 127 125 122 119 117
165 236 253 272 283 266 246 239 230 230 235 249 264 273 282 293 300 303 303 302 300 305 310 313 328 95 94 99 104 109 112 116 123 128 132 133 130 126 122 120 118 116 114 112
175 243 271 266 259 255 257 252 245 243 245 251 264 273 280 290 298 307 310 303 291 292 309 324 54 97 110 110 109 110 114 118 123 128 129 127 125 122 119 117 114 111 108 108
177 210 250 270 279 281 262 245 236 236 239 247 261 274 297 303 308 316 320 307 270 155 67 65 80 95 103 107 111 114 117 120 124 127 127 125 122 119 117 116 113 113 112 113
183 199 243 286 299 253 247 136 140 245 261 254 265 282 293 301 307 342 352 14 106 117 107 97 95 94 97 102 106 109 115 121 125 126 124 122 120 118 115 113 112 112 114 117
194 194 229 261 275 275 267 153 148 255 279 270 275 293 305 308 295 51 37 57 87 101 98 95 96 101 103 106 111 116 119 122 124 124 122 120 119 118 116 115 113 113 114 111
192 196 224 250 271 266 2 122 130 186 266 307 314 314 323 328 322 20 54 76 86 90 93 96 99 103 107 111 116 122 124 124 122 119 116 115 115 116 114 113 110 107 107 107
181 199 220 234 252 270 292 124 131 257 295 320 317 321 331 339 10 61 76 88 94 97 99 102 103 106 112 118 121 122 121 119 118 116 112 109 107 108 109 108 107 107 106 108
183 193 201 202 225 251 215 139 234 277 301 303 314 332 340 64 90 91 96 101 103 106 109 111 112 114 117 123 124 120 117 116 113 110 106 104 103 106 110 109 105 103 103 97
192 201 196 204 227 256 209 239 258 281 297 319 329 336 17 137 115 106 108 111 113 113 113 117 120 118 116 117 121 121 120 118 114 109 106 105 102 99 102 105 105 100 89 73
218 213 240 261 263 275 282 282 306 12 348 7 5 324 188 140 127 119 117 113 113 113 118 123 122 119 115 113 114 116 119 118 114 110 108 106 105 100 90 84 85 88 77 59
256 204 232 254 271 278 276 8 37 64 65 54 38 36 98 127 127 122 119 116 114 113 112 113 115 113 111 112 112 113 116 117 112 109 107 104 101 103 96 83 71 79 83 89
228 217 222 245 284 314 38 54 57 77 73 78 80 74 83 112 121 118 115 114 116 116 113 109 108 110 111 111 110 109 112 116 115 112 108 105 103 99 99 98 81 78 105 92
Height
1461 1465 1464 1463 1463 1460 1459 1460 1457 1452 1449 1453 1454 1452 1449 1446 1445 1443 1442 1442 1442 1442 1443 1445 1447 1449 1452 1455 1458 1461 1463 1466 1469 1473 1476 1479 1482 1486 1490 1493 1496 1499 1501 1504
1462 1462 1458 1457 1458 1460 1462 1464 1462 1457 1453 1454 1453 1448 1443 1437 1434 1433 1433 1433 1434 1435 1437 1438 1440 1442 1444 1447 1450 1454 1456 1459 1462 1466 1469 1473 1477 1481 1484 1488 1491 1494 1496 1499
1456 1456 1455 1457 1459 1462 1464 1466 1464 1462 1459 1456 1455 1444 1431 1421 1420 1422 1424 1425 1426 1428 1430 1432 1434 1435 1438 1440 1443 1447 1450 1453 1456 1460 1463 1467 1470 1474 1478 1482 1485 1488 1491 1495
1455 1454 1455 1457 1459 1462 1465 1461 1462 1464 1467 1463 1456 1457 1431 1420 1415 1414 1415 1417 1419 1421 1424 1426 1428 1430 1432 1434 1438 1440 1444 1447 1451 1453 1455 1458 1462 1465 1470 1474 1478 1482 1487 1491
1454 1454 1456 1458 1458 1460 1462 1463 1465 1465 1467 1469 1460 1462 1434 1418 1416 1411 1410 1411 1413 1416 1418 1420 1422 1424 1426 1429 1431 1434 1437 1441 1444 1446 1448 1452 1456 1460 1464 1469 1473 1478 1482 1487
1451 1453 1455 1457 1457 1460 1462 1467 1467 1467 1471 1475 1458 1456 1435 1417 1410 1408 1407 1409 1411 1413 1415 1416 1418 1419 1421 1423 1424 1427 1430 1433 1437 1440 1442 1446 1449 1453 1457 1462 1466 1472 1477 1482
1454 1454 1456 1457 1460 1463 1465 1471 1473 1472 1474 1467 1445 1442 1429 1411 1406 1406 1408 1409 1410 1411 1413 1413 1414 1415 1415 1417 1418 1420 1423 1426 1430 1434 1436 1441 1443 1447 1452 1456 1460 1466 1471 1476
1452 1454 1454 1456 1458 1461 1464 1467 1469 1467 1459 1446 1432 1433 1419 1406 1403 1404 1406 1408 1409 1410 1410 1410 1410 1410 1411 1411 1412 1414 1416 1420 1424 1428 1432 1436 1439 1443 1447 1451 1456 1462 1467 1473
1445 1448 1448 1453 1456 1458 1463 1465 1462 1465 1463 1466 1447 1426 1411 1401 1401 1403 1405 1407 1408 1408 1408 1407 1406 1405 1405 1405 1406 1407 1410 1415 1419 1423 1428 1431 1434 1438 1443 1447 1453 1458 1464 1470
1440 1447 1449 1452 1456 1458 1458 1459 1465 1471 1473 1465 1443 1427 1416 1403 1403 1404 1405 1405 1406 1405 1404 1402 1401 1399 1398 1398 1399 1401 1404 1409 1413 1418 1422 1426 1430 1435 1440 1444 1449 1455 1462 1467
1441 1447 1451 1454 1456 1456 1460 1462 1460 1463 1460 1464 1454 1432 1402 1404 1403 1405 1405 1404 1403 1402 1400 1397 1395 1392 1391 1391 1392 1395 1399 1404 1408 1413 1418 1423 1427 1432 1437 1442 1448 1454 1460 1466
1441 1445 1450 1450 1448 1448 1452 1454 1458 1465 1460 1455 1454 1434 1405 1403 1402 1403 1403 1402 1400 1398 1395 1392 1390 1387 1385 1384 1386 1389 1394 1399 1403 1409 1414 1420 1425 1430 1435 1440 1446 1453 1459 1465
1440 1446 1452 1449 1450 1448 1448 1448 1450 1453 1455 1455 1451 1430 1404 1403 1402 1402 1401 1398 1396 1393 1391 1388 1385 1382 1381 1381 1383 1386 1391 1396 1401 1407 1412 1418 1423 1428 1433 1439 1446 1453 1459 1464
1438 1441 1445 1442 1441 1443 1445 1444 1444 1449 1453 1448 1437 1421 1409 1406 1403 1400 1398 1394 1391 1389 1386 1383 1381 1380 1380 1380 1382 1385 1390 1395 1400 1406 1412 1417 1422 1427 1433 1440 1447 1453 1459 1464
1439 1442 1439 1437 1435 1435 1436 1437 1437 1439 1439 1439 1426 1419 1408 1404 1401 1397 1393 1390 1388 1386 1384 1381 1379 1378 1379 1381 1384 1387 1391 1396 1401 1407 1412 1416 1422 1428 1434 1441 1448 1454 1459 1464
1439 1441 1439 1436 1431 1430 1429 1427 1427 1427 1426 1424 1420 1412 1404 1400 1397 1393 1390 1387 1385 1383 1382 1380 1379 1379 1380 1383 1386 1389 1393 1398 1403 1408 1412 1417 1422 1429 1435 1442 1449 1454 1459 1464
1438 1440 1440 1435 1425 1424 1424 1414 1414 1416 1415 1416 1413 1406 1400 1397 1393 1390 1388 1385 1383 1382 1381 1380 1379 1380 1382 1385 1388 1392 1396 1400 1405 1409 1413 1418 1424 1430 1437 1444 1450 1455 1460 1464
1435 1438 1439 1436 1431 1430 1414 1404 1406 1409 1408 1407 1405 1402 1399 1395 1392 1389 1387 1384 1383 1382 1381 1381 1381 1382 1385 1387 1391 1395 1399 1403 1407 1411 1415 1421 1427 1433 1440 1446 1452 1456 1460 1463
1432 1436 1438 1437 1431 1420 1406 1404 1406 1408 1406 1402 1402 1399 1396 1392 1389 1389 1387 1385 1384 1383 1383 1383 1384 1385 1387 1390 1394 1398 1402 1406 1410 1414 1419 1424 1431 1436 1442 1448 1453 1457 1460 1462
1431 1434 1438 1435 1433 1424 1407 1404 1404 1408 1405 1401 1399 1397 1395 1391 1390 1391 1389 1386 1385 1385 1385 1385 1386 1388 1391 1394 1398 1402 1406 1410 1414 1418 1422 1429 1435 1440 1445 1450 1454 1457 1460 1462
1430 1433 1434 1433 1430 1417 1403 1402 1404 1409 1405 1400 1397 1396 1394 1392 1393 1392 1389 1388 1387 1387 1387 1388 1390 1392 1395 1398 1402 1405 1409 1413 1417 1422 1427 1433 1439 1444 1448 1451 1455 1457 1459 1461
1423 1426 1427 1427 1428 1420 1401 1401 1403 1402 1398 1397 1395 1394 1393 1392 1391 1390 1390 1390 1389 1389 1390 1391 1393 1396 1399 1403 1406 1409 1413 1417 1422 1427 1432 1437 1442 1446 1450 1452 1455 1457 1458 1459
1412 1414 1413 1416 1413 1401 1398 1398 1397 1397 1396 1394 1393 1392 1391 1390 1390 1390 1391 1391 1392 1392 1393 1395 1397 1400 1404 1408 1411 1413 1417 1421 1426 1431 1436 1441 1445 1448 1451 1453 1455 1456 1457 1457
1405 1405 1406 1405 1400 1397 1396 1395 1394 1394 1393 1391 1390 1389 1389 1389 1389 1390 1392 1393 1394 1395 1397 1399 1401 1404 1408 1412 1415 1418 1422 1427 1431 1435 1439 1443 1446 1449 1452 1454 1455 1455 1456 1455
1403 1403 1404 1402 1398 1396 1394 1393 1393 1391 1390 1389 1388 1387 1387 1388 1389 1390 1392 1394 1395 1397 1400 1403 1405 1407 1411 1415 1419 1423 1427 1431 1435 1439 1442 1445 1448 1450 1452 1453 1454 1454 1454 1454
1400 1400 1401 1399 1395 1394 1394 1392 1391 1390 1389 1388 1387 1387 1387 1388 1389 1390 1392 1395 1397 1399 1402 1405 1408 1410 1414 1418 1423 1427 1431 1435 1438 1441 1444 1447 1449 1451 1452 1453 1453 1453 1453 1451